Regional Weather Roundup
Issued by NWS

Home | Current Version | Previous Version | Text Only | Print | Product List | Glossary Off
Versions: 1 2 3 4 5 6 7 8 9 10 11 12 13 14 15 16 17 18 19 20 21 22 23 24 25 26 27 28 29 30 31 32 33 34 35 36 37 38 39 40 41 42 43 44 45 46 47 48 49 50

000
ASUS43 KFSD 310602
RWRSD

WEATHER ROUNDUP FOR SOUTH DAKOTA
NATIONAL WEATHER SERVICE SIOUX FALLS SD
100 AM CDT FRI OCT 31 2014

NOTE: "FAIR" INDICATES FEW OR NO CLOUDS BELOW 12,000 FEET WITH NO
SIGNIFICANT WEATHER AND/OR OBSTRUCTIONS TO VISIBILITY.


SDZ001>005-009-010-012>017-310700-
NORTHWEST AND NORTH CENTRAL SOUTH DAKOTA

CITY           SKY/WX    TMP DP  RH WIND       PRES   REMARKS
BUFFALO          N/A     33  28  81 SE14      30.39F WCI  23
FAITH            N/A     31  27  85 E10       30.51F WCI  22
MOBRIDGE       CLEAR     22  18  85 NE7       30.54F WCI  13
$$

SDZ012>016-024>037-041>051-057-063-072>074-310700-
SOUTHWEST AND SOUTH CENTRAL SOUTH DAKOTA

CITY           SKY/WX    TMP DP  RH WIND       PRES   REMARKS
RAPID CTY ARPT CLOUDY    31  28  89 SE9       30.49R WCI  23
PIERRE         PTCLDY    26  20  77 NE6       30.57R WCI  19
CUSTER         FOG       28  27  96 E7        30.40S VSB 1/4 WCI  21
ELLSWORTH AFB  CLOUDY    32  28  86 SE14      30.48  WCI  22
PHILIP         CLOUDY    35  29  78 E12       30.53S WCI  27
PINE RIDGE     CLEAR     24  22  91 E3        30.47R
SPEARFISH      FAIR      27  27 100 CALM      30.40F
WINNER         CLOUDY    34  25  69 NE16      30.54R WCI  24
$$

SDZ004>011-016>023-039-040-310700-
NORTHEAST SOUTH DAKOTA

CITY           SKY/WX    TMP DP  RH WIND       PRES   REMARKS
ABERDEEN       CLEAR     21  17  84 N6        30.57R WCI  13
WATERTOWN      CLEAR     23  19  85 N10       30.50R WCI  12
SISSETON         N/A     23  20  88 N9        30.55R WCI  13
$$

SDZ017-020-022-023-036>040-048>070-310700-
SOUTHEAST SOUTH DAKOTA

CITY           SKY/WX    TMP DP  RH WIND       PRES   REMARKS
SIOUX FALLS    CLEAR     27  20  75 N9        30.49R WCI  18
HURON          CLEAR     19  16  88 NW8       30.56S WCI   9
CHAMBERLAIN    CLEAR     28  20  72 NE3       30.56S
MITCHELL       CLEAR     26  20  77 NW8       30.56R WCI  18
YANKTON        MOCLDY    34  21  60 N16G24    30.53R WCI  23
$$

ABBREVIATIONS USED IN REMARKS
   TC - TEMPERATURE IN CELSIUS
  WCI - WIND CHILL INDEX
   HX - HEAT INDEX
  VSB - VISIBILITY




USA.gov is the U.S. government's official web portal to all federal, state and local government web resources and services.